Wind_Speed
115 114 113 112 111 110 110 109 108 108 107 105 104 104 103 104 104 104 104 104 104 103 103 103 102 102 102 101 101 101 101 101 101 101 100 100 100 100 100 100 101 101
118 117 116 116 115 113 112 111 110 109 108 106 105 104 103 103 104 104 104 104 103 103 102 102 102 102 102 102 101 101 100 100 99 99 99 99 99 100 100 101 101 102
119 119 118 118 117 116 115 113 111 109 108 107 105 104 103 103 102 103 103 103 103 103 103 102 102 102 102 102 101 100 99 99 99 99 99 99 99 99 99 100 99 99
120 120 119 119 118 117 116 114 112 111 109 108 106 105 104 103 102 102 102 102 101 101 101 101 102 102 102 101 101 100 99 99 99 99 99 99 100 100 100 99 99 99
121 120 119 119 118 117 116 115 114 113 112 110 109 107 106 105 104 103 102 102 101 101 101 100 100 100 100 100 99 99 99 100 100 101 101 101 101 101 102 101 101 101
122 120 119 119 118 117 116 115 114 114 113 112 111 110 109 108 106 105 104 103 103 103 102 101 101 100 100 99 99 99 100 100 101 102 102 102 103 103 103 104 104 104
122 121 120 118 117 116 116 115 115 114 113 112 112 111 110 109 108 107 106 106 105 105 104 103 103 102 102 101 101 101 101 101 102 102 103 104 104 104 104 105 105 105
122 120 119 118 117 116 115 115 114 114 113 113 112 111 110 110 109 108 108 107 107 106 106 105 105 104 103 103 103 102 102 103 103 103 104 104 105 105 105 105 105 105
119 118 117 116 115 115 114 114 113 113 113 112 111 111 110 109 109 108 108 108 107 107 107 106 106 106 105 105 105 105 105 105 105 105 104 104 104 104 104 104 103 103
115 114 114 113 113 112 112 112 112 112 111 111 110 109 109 108 108 108 108 108 108 107 107 107 107 106 106 106 106 106 105 105 105 104 104 104 103 103 102 101 101 100
111 111 110 110 109 109 109 110 110 109 109 108 108 108 107 107 107 107 107 107 107 107 106 106 106 106 105 105 105 104 104 104 103 103 102 102 101 100 99 99 98 98
109 108 107 107 106 106 107 107 106 106 105 105 105 105 105 105 105 105 105 105 104 104 104 104 103 103 103 103 102 102 102 101 101 100 99 99 98 98 98 97 97 97
108 107 106 105 104 104 104 103 103 102 102 102 102 102 102 102 102 102 102 102 101 101 101 101 101 100 100 100 100 99 99 98 98 97 97 97 96 96 96 96 96 95
107 106 104 104 103 103 102 101 101 100 100 100 100 100 100 100 100 100 99 99 99 99 99 99 98 98 98 98 97 97 96 95 95 95 95 95 95 95 95 94 94 93
105 104 103 103 102 101 100 100 100 99 99 98 98 98 98 98 98 98 98 98 98 98 98 97 97 96 96 95 95 94 93 93 93 93 93 93 93 93 92 91 90 89
102 101 101 101 100 99 99 99 98 98 98 97 97 97 97 97 97 97 97 97 97 97 96 96 95 94 93 93 92 91 91 91 91 91 91 91 90 89 88 87 86 85
98 98 98 98 98 97 97 97 96 97 97 97 97 97 97 97 97 97 96 96 95 95 94 93 92 91 90 89 89 89 89 89 89 88 88 87 86 84 83 82 82 81
93 94 94 95 94 94 94 94 94 95 95 95 96 96 96 95 95 95 94 93 92 91 90 89 88 87 86 87 87 86 86 85 85 84 83 81 80 79 78 78 77 78
86 88 89 90 90 90 89 90 92 93 93 93 93 93 92 92 91 90 89 87 86 85 84 84 83 83 83 83 83 82 81 80 78 77 76 75 74 74 74 73 73 74
77 80 82 82 82 83 84 85 87 88 88 88 87 86 85 84 83 81 80 80 79 79 78 78 78 78 77 77 76 74 73 72 71 71 70 70 69 69 69 69 69 70
66 70 71 72 73 75 77 78 79 80 80 80 78 77 76 74 73 73 73 73 73 72 72 72 72 70 69 68 67 66 65 65 66 66 65 65 65 65 65 65 65 65
57 60 61 62 64 66 68 69 70 71 70 69 67 66 66 65 65 65 65 66 65 65 65 64 63 60 59 60 60 60 60 61 61 61 61 61 61 61 60 60 61 61
49 51 52 54 56 57 58 59 59 59 59 58 57 57 57 57 58 59 59 58 57 56 55 54 54 53 54 55 56 56 56 57 58 57 56 56 56 55 56 56 58 59
41 43 44 45 46 47 48 49 50 51 50 50 49 50 51 51 51 51 50 49 48 48 48 48 49 50 50 51 52 52 52 54 54 52 51 51 52 52 53 55 57 60
31 33 35 36 38 39 42 43 43 43 43 42 43 44 44 43 42 42 42 42 42 43 44 45 46 46 46 47 48 48 48 49 49 48 49 50 51 52 55 58 60 63
21 24 26 28 30 32 33 33 33 33 33 34 35 35 35 35 35 36 37 38 39 40 41 42 43 43 42 43 44 44 45 47 49 49 50 52 53 55 58 61 63 64
Wind_Direction
247 248 249 249 249 249 250 252 253 255 256 257 259 260 261 263 264 265 266 268 269 270 271 272 273 274 275 276 277 278 279 280 281 281 282 282 283 284 284 285 286 287
246 247 248 249 250 250 251 252 253 255 256 258 259 259 261 262 263 265 266 267 268 268 269 270 271 272 273 274 275 276 277 278 279 280 281 282 283 283 284 285 286 287
244 245 246 248 249 250 251 252 253 255 256 257 258 259 259 260 262 263 264 266 267 268 268 269 270 271 272 273 274 275 276 277 278 279 280 281 282 282 283 284 286 287
243 244 245 246 247 248 249 251 252 253 254 255 256 257 258 258 259 261 262 264 265 266 267 269 270 271 272 273 274 275 275 276 277 278 279 280 281 281 282 283 285 285
243 243 244 245 246 247 248 249 250 251 252 253 254 255 256 257 258 259 260 262 263 264 265 267 268 269 271 272 273 274 274 275 276 277 278 279 280 281 282 283 284 285
243 243 244 245 245 246 247 248 249 250 251 252 253 254 255 256 257 258 259 260 261 263 264 265 267 268 269 270 271 273 274 275 276 277 278 279 280 281 282 283 284 285
243 243 244 244 245 246 247 248 248 249 250 251 252 253 254 255 256 257 258 259 261 262 263 265 266 268 269 270 271 273 274 275 276 278 279 280 281 282 283 283 284 285
242 243 244 244 245 246 247 248 249 249 250 251 252 253 254 255 256 257 258 260 261 262 263 265 266 268 269 270 272 273 274 276 277 278 279 280 281 282 283 283 284 285
241 242 243 244 245 246 247 248 248 249 251 252 253 254 255 256 257 258 259 261 262 263 264 265 267 268 269 271 272 273 274 275 277 278 279 280 281 282 282 283 284 284
240 241 242 243 244 245 246 247 248 249 250 252 253 254 255 256 258 259 260 261 262 264 265 266 267 268 270 271 272 273 274 275 277 278 279 280 281 281 282 283 283 284
239 240 241 242 244 245 246 247 248 249 250 252 253 254 255 257 258 259 260 261 263 264 265 266 268 269 270 271 272 273 274 276 277 278 279 280 280 281 281 282 283 284
237 239 240 242 243 244 245 247 248 249 250 252 253 254 255 257 258 259 261 262 263 264 265 266 268 269 270 271 272 274 275 276 277 278 279 279 280 280 281 282 283 284
236 238 239 241 242 244 245 246 248 249 250 251 253 254 255 257 258 259 261 262 263 264 265 267 268 269 270 271 273 274 275 276 277 278 279 279 279 280 281 282 283 284
235 237 238 240 242 243 245 246 247 249 250 251 253 254 255 257 258 259 261 262 263 264 265 267 268 269 271 272 273 274 275 276 277 278 278 278 279 280 281 282 283 285
235 236 238 239 241 243 244 246 248 249 250 252 253 254 256 257 258 259 261 262 263 264 266 267 268 270 271 272 274 275 276 277 277 277 278 279 280 281 282 283 284 285
235 236 238 239 241 243 244 246 248 249 251 252 254 255 256 257 258 260 261 262 263 265 266 268 269 271 272 274 275 276 276 276 277 277 278 279 280 281 283 283 284 284
236 237 238 240 241 243 244 246 248 249 251 252 254 255 256 258 259 260 261 263 264 266 268 269 271 272 274 275 275 276 276 276 277 278 279 280 281 282 283 283 283 283
237 238 239 241 242 243 245 246 248 250 251 253 254 255 257 258 260 261 263 265 267 268 270 271 273 274 274 274 275 275 275 276 277 278 279 280 281 281 282 282 283 283
239 240 241 242 243 245 246 248 249 251 252 253 255 256 258 260 262 264 266 267 269 270 272 272 273 273 273 273 274 274 275 276 278 278 279 279 280 281 281 282 283 284
242 243 244 245 246 247 248 249 251 252 254 255 257 259 261 263 265 267 268 270 270 271 271 272 271 271 272 272 274 275 276 276 277 277 278 279 280 281 282 283 284 285
245 246 247 248 249 250 251 252 254 255 257 259 260 262 264 265 267 268 269 269 269 269 269 269 269 270 271 273 273 274 274 275 276 277 278 280 281 282 283 284 285 287
246 247 249 250 251 251 253 254 255 257 259 260 262 263 264 265 266 266 266 265 265 266 267 268 269 270 271 271 271 273 274 275 277 278 280 281 282 283 285 286 288 289
241 243 245 247 248 249 251 253 254 255 257 258 259 260 260 260 260 261 261 262 264 265 266 267 267 268 268 270 272 274 276 277 277 279 281 282 284 286 287 288 289 290
235 238 240 242 244 245 247 248 249 250 252 253 254 254 255 256 257 259 260 261 262 262 264 265 266 268 270 272 273 275 276 277 279 282 283 285 287 288 289 289 289 290
236 238 240 241 242 242 244 245 247 249 250 250 250 251 252 254 255 256 257 258 260 262 264 266 268 270 271 272 274 276 278 280 282 285 286 286 287 288 288 289 290 292
234 235 237 238 240 241 243 245 246 246 246 245 246 248 250 251 253 255 257 260 262 264 265 266 268 271 273 275 277 280 282 283 284 285 286 287 288 289 290 291 293 296
Height
10589 10592 10595 10599 10601 10601 10602 10603 10606 10608 10612 10616 10619 10621 10622 10622 10622 10623 10625 10626 10628 10630 10630 10630 10630 10629 10629 10629 10629 10629 10628 10628 10628 10627 10626 10625 10624 10623 10621 10620 10619 10617
10579 10582 10585 10588 10591 10592 10594 10596 10599 10602 10605 10609 10612 10614 10614 10614 10614 10615 10616 10617 10619 10621 10622 10622 10622 10622 10621 10622 10622 10621 10620 10620 10619 10618 10618 10617 10615 10613 10612 10611 10609 10608
10569 10572 10575 10578 10581 10583 10586 10589 10592 10596 10598 10600 10603 10605 10606 10607 10607 10607 10608 10609 10610 10611 10612 10613 10614 10614 10614 10614 10614 10614 10613 10612 10611 10611 10610 10609 10607 10605 10604 10602 10601 10599
10558 10561 10564 10567 10571 10575 10579 10582 10585 10588 10590 10591 10594 10596 10598 10599 10600 10600 10601 10601 10602 10602 10603 10604 10605 10605 10606 10606 10606 10606 10605 10605 10604 10603 10603 10601 10599 10597 10596 10594 10593 10591
10545 10550 10554 10558 10562 10566 10570 10574 10576 10578 10580 10582 10585 10587 10589 10591 10592 10594 10595 10595 10595 10596 10596 10596 10597 10597 10598 10598 10598 10598 10597 10597 10596 10595 10594 10593 10591 10589 10587 10586 10584 10582
10533 10539 10544 10547 10552 10556 10560 10563 10566 10568 10571 10573 10576 10578 10580 10582 10584 10586 10587 10588 10588 10589 10589 10589 10590 10590 10590 10590 10590 10589 10588 10588 10587 10586 10585 10583 10582 10580 10578 10576 10574 10572
10520 10526 10532 10537 10542 10546 10549 10553 10556 10559 10562 10564 10566 10568 10571 10573 10575 10577 10579 10580 10580 10581 10581 10582 10582 10582 10582 10581 10581 10580 10579 10579 10578 10576 10575 10574 10572 10571 10568 10566 10564 10562
10509 10515 10522 10527 10531 10535 10539 10543 10546 10549 10552 10554 10557 10559 10562 10564 10566 10568 10570 10571 10571 10572 10573 10573 10574 10574 10573 10573 10572 10572 10571 10570 10569 10567 10566 10564 10562 10561 10558 10556 10554 10552
10500 10506 10511 10516 10521 10525 10529 10533 10536 10539 10542 10544 10548 10551 10553 10555 10557 10559 10561 10562 10562 10563 10564 10565 10565 10565 10565 10564 10564 10563 10562 10561 10560 10558 10557 10555 10553 10551 10548 10546 10543 10541
10490 10496 10501 10506 10511 10515 10519 10523 10526 10529 10532 10536 10539 10542 10544 10546 10548 10550 10551 10552 10553 10554 10555 10556 10556 10556 10556 10555 10554 10554 10553 10552 10550 10549 10547 10545 10543 10541 10538 10536 10533 10531
10480 10486 10491 10496 10501 10506 10509 10512 10516 10520 10524 10528 10530 10533 10535 10537 10538 10540 10542 10543 10544 10545 10546 10546 10546 10546 10546 10546 10545 10545 10544 10543 10541 10539 10538 10536 10534 10531 10528 10526 10524 10521
10470 10476 10481 10487 10492 10496 10499 10503 10508 10513 10516 10519 10521 10523 10526 10527 10529 10531 10532 10534 10535 10535 10536 10536 10536 10536 10537 10536 10536 10536 10535 10533 10532 10530 10528 10526 10523 10520 10518 10516 10514 10512
10461 10466 10473 10479 10483 10487 10491 10496 10500 10504 10507 10510 10512 10515 10517 10519 10520 10522 10523 10524 10525 10526 10526 10527 10527 10528 10528 10528 10527 10527 10525 10524 10523 10521 10518 10515 10512 10510 10508 10506 10505 10503
10452 10459 10465 10470 10474 10479 10484 10488 10492 10495 10498 10501 10504 10506 10508 10510 10511 10513 10514 10515 10515 10516 10517 10518 10519 10519 10519 10519 10519 10517 10516 10515 10513 10510 10506 10503 10501 10500 10498 10497 10495 10494
10444 10452 10457 10462 10466 10472 10477 10480 10484 10487 10490 10493 10495 10497 10499 10501 10503 10504 10505 10506 10506 10508 10509 10510 10511 10511 10511 10510 10509 10508 10507 10505 10501 10498 10496 10493 10492 10490 10489 10488 10486 10484
10439 10446 10450 10454 10460 10465 10469 10473 10476 10480 10483 10485 10487 10488 10490 10492 10493 10495 10496 10497 10499 10500 10501 10502 10502 10502 10503 10502 10500 10498 10496 10493 10490 10487 10485 10483 10482 10481 10480 10478 10476 10474
10434 10440 10444 10448 10453 10458 10462 10466 10470 10472 10474 10476 10478 10480 10481 10483 10485 10486 10488 10489 10491 10492 10493 10494 10494 10494 10494 10492 10489 10486 10484 10481 10479 10477 10475 10474 10474 10472 10471 10468 10466 10463
10430 10434 10438 10442 10447 10451 10456 10460 10462 10464 10466 10468 10469 10471 10473 10475 10477 10479 10481 10483 10484 10485 10486 10486 10486 10485 10483 10479 10476 10475 10473 10471 10470 10468 10467 10466 10465 10463 10461 10459 10457 10454
10425 10429 10432 10436 10441 10446 10450 10454 10454 10456 10458 10460 10461 10464 10467 10469 10471 10472 10474 10476 10477 10477 10477 10476 10475 10473 10470 10468 10466 10465 10464 10463 10461 10460 10458 10457 10455 10454 10452 10450 10448 10445
10421 10424 10427 10431 10437 10441 10444 10446 10447 10448 10451 10453 10455 10458 10461 10463 10465 10466 10467 10468 10467 10467 10466 10465 10463 10461 10460 10458 10457 10456 10455 10454 10452 10451 10449 10448 10447 10446 10444 10442 10439 10437
10416 10419 10422 10427 10431 10435 10437 10438 10440 10443 10444 10446 10449 10452 10454 10456 10457 10458 10458 10457 10457 10456 10456 10454 10452 10452 10452 10450 10448 10448 10447 10446 10444 10443 10442 10441 10440 10438 10437 10434 10432 10429
10410 10413 10417 10421 10424 10427 10430 10432 10434 10436 10438 10440 10443 10445 10447 10448 10448 10448 10447 10447 10447 10447 10446 10444 10444 10445 10444 10442 10440 10440 10440 10438 10437 10436 10436 10435 10433 10431 10429 10427 10424 10422
10403 10407 10410 10414 10417 10420 10423 10425 10427 10429 10431 10433 10436 10437 10438 10438 10438 10438 10438 10438 10438 10438 10438 10437 10437 10437 10437 10435 10434 10434 10433 10431 10430 10430 10429 10428 10426 10425 10422 10420 10417 10414
10397 10401 10404 10407 10410 10413 10415 10417 10419 10421 10424 10426 10428 10428 10429 10429 10430 10431 10431 10431 10431 10431 10431 10431 10430 10430 10430 10429 10428 10428 10427 10424 10423 10424 10423 10421 10420 10418 10416 10413 10410 10407
10394 10397 10400 10403 10405 10407 10409 10411 10413 10416 10418 10420 10420 10421 10422 10423 10424 10425 10425 10425 10425 10425 10425 10424 10423 10424 10425 10423 10421 10421 10421 10418 10417 10417 10416 10414 10413 10412 10409 10405 10402 10399
10391 10394 10396 10398 10400 10402 10404 10407 10409 10411 10413 10414 10414 10416 10417 10418 10419 10419 10419 10419 10419 10419 10419 10418 10417 10418 10418 10418 10416 10416 10415 10412 10410 10409 10409 10408 10406 10404 10400 10397 10394 10391